Regional Weather Roundup
Issued by NWS

Home | Current Version | Previous Version | Text Only | Print | Product List | Glossary Off
Versions: 1 2 3 4 5 6 7 8 9 10 11 12 13 14 15 16 17 18 19 20 21 22 23 24 25 26 27 28 29 30 31 32 33 34 35 36 37 38 39 40 41 42 43 44 45 46 47 48 49 50

000
ASUS44 KMEG 281000
RWRTN
TENNESSEE HOURLY STATE WEATHER ROUNDUP
NATIONAL WEATHER SERVICE MEMPHIS TN
500 AM CDT THU MAY 28 2015

TNZ002-004-019-021-049-052-054-088>092-281100-
WEST TENNESSEE

CITY           SKY/WX    TMP DP  RH WIND       PRES   REMARKS
MEMPHIS INTL   CLOUDY    70  65  84 SW5       30.11F
NWS MEMPHIS      N/A     69 N/A N/A MISG        N/A
JACKSON        NOT AVBL
DYERSBURG      CLEAR     63  52  67 CALM      30.13F
PARIS          CLOUDY    61  61 100 CALM      30.16R VSB 1/4
LEXINGTON      CLOUDY    61  61 100 CALM      30.15R VSB 1/2
$$

TNZ008-025-027-028-033-062-065-066-281100-
NORTH MIDDLE TENNESSEE

CITY           SKY/WX    TMP DP  RH WIND       PRES   REMARKS
NASHVILLE      NOT AVBL
CLARKSVILLE    MOCLDY    63  63 100 N5        30.16R FOG
COOKEVILLE     CLOUDY    64  64 100 CALM      30.20R
CROSSVILLE     CLOUDY    65  62  90 CALM      30.23R
$$

TNZ061-075-076-078-094-096-097-281100-
SOUTH MIDDLE TENNESSEE

CITY           SKY/WX    TMP DP  RH WIND       PRES   REMARKS
FAYETTEVILLE   CLEAR    N/A N/A N/A MISG      30.17R
TULLAHOMA      CLOUDY    64  63  94 CALM      30.19S
WINCHESTER     CLOUDY    64  63  94 S3        30.19R
MCMINNVILLE    CLOUDY    64  64 100 E6        30.20R
COLUMBIA       CLOUDY    66  66 100 CALM      30.16R
SHELBYVILLE    MOCLDY    66  66 100 NW3       30.18S
$$

TNZ017-018-042-046-047-281100-
NORTHEAST TENNESSEE

CITY           SKY/WX    TMP DP  RH WIND       PRES   REMARKS
TRI CITIES     MOCLDY    64  62  93 CALM      30.23R
ELIZABETHTON   MOSUNNY   61  59  94 CALM      30.24R
$$

TNZ012-013-036-069-073-074-281100-
CENTRAL EAST TENNESSEE

CITY           SKY/WX    TMP DP  RH WIND       PRES   REMARKS
KNOXVILLE      CLOUDY    68  62  81 N3        30.17S
OAK RIDGE      CLOUDY    68  66  93 CALM      30.20R
GATLINBURG       N/A     63  61  94 CALM      30.19S
$$

TNZ083-085-099-281100-
SOUTHEAST TENNESSEE

CITY           SKY/WX    TMP DP  RH WIND       PRES   REMARKS
CHATTANOOGA    DRIZZLE   67  65  93 CALM      30.19R
$$

SKY/WX REPORTED AS FAIR MEANS FEW OR NO CLOUDS BELOW
12 THOUSAND FEET.




USA.gov is the U.S. government's official web portal to all federal, state and local government web resources and services.